When you browse on this site, cookies collect data to enhance your experience and personalize the content and advertising you see.
Visit our Privacy Policy to learn more. By continuing to use the site, you agree to this use of cookies and data.
  • In Latvia
  • List of Countries
  • For 7 days
  • Water Temperature
  • Weather Map
  • Weather Widgets
  • user-avatar
    Login

    Hourly Weather Le Chatelard

    Today, 12 November, Tuesday

    Time Temperature Precipitation Wind Pressure Humidity
    00:00 +3°C° 0.7 mm 2 mps 698 mmHg 97%
    01:00 +3°C° 0.4 mm 2 mps 697 mmHg 97%
    02:00 +3°C° 0.4 mm 2 mps 697 mmHg 97%
    03:00 +2°C° 0.4 mm 2 mps 697 mmHg 97%
    04:00 +2°C° 0.1 mm 2 mps 697 mmHg 96%
    05:00 +2°C° 0.1 mm 1 mps 697 mmHg 96%
    06:00 +2°C° 0.1 mm 1 mps 697 mmHg 96%
    07:00 +3°C° 0 mm 1 mps 697 mmHg 92%
    08:00 +4°C° 0 mm 1 mps 697 mmHg 89%
    09:00 +5°C° 0 mm 1 mps 697 mmHg 85%
    10:00 +4°C° 0 mm 2 mps 697 mmHg 81%
    11:00 +5°C° 0 mm 2 mps 696 mmHg 77%
    12:00 +6°C° 0 mm 2 mps 696 mmHg 72%
    13:00 +5°C° 0 mm 2 mps 695 mmHg 76%
    14:00 +5°C° 0 mm 2 mps 695 mmHg 80%
    15:00 +4°C° 0 mm 2 mps 694 mmHg 83%
    16:00 +4°C° 0 mm 1 mps 694 mmHg 86%
    17:00 +3°C° 0 mm 1 mps 694 mmHg 88%
    18:00 +1°C° 0 mm 1 mps 695 mmHg 91%
    19:00 +1°C° 0 mm 1 mps 694 mmHg 91%
    20:00 +1°C° 0 mm 1 mps 694 mmHg 91%
    21:00 +1°C° 0 mm 1 mps 694 mmHg 91%
    22:00 +1°C° 0.1 mm 1 mps 694 mmHg 91%
    23:00 +1°C° 0.1 mm 1 mps 693 mmHg 91%

    Tomorrow, 13 November, Wednesday

    Time Temperature Precipitation Wind Pressure Humidity
    00:00 0°C° 0.1 mm 0 mps 693 mmHg 91%
    01:00 +1°C° 0.1 mm 1 mps 693 mmHg 91%
    02:00 0°C° 0.1 mm 1 mps 693 mmHg 92%
    03:00 0°C° 0.1 mm 1 mps 693 mmHg 92%
    04:00 0°C° 0 mm 1 mps 693 mmHg 91%
    05:00 0°C° 0 mm 1 mps 693 mmHg 91%
    06:00 -1°C° 0 mm 1 mps 693 mmHg 90%
    07:00 +1°C° 0 mm 1 mps 693 mmHg 86%
    08:00 +2°C° 0 mm 1 mps 693 mmHg 82%
    09:00 +4°C° 0 mm 1 mps 693 mmHg 78%
    10:00 +5°C° 0 mm 1 mps 693 mmHg 75%
    11:00 +6°C° 0 mm 1 mps 693 mmHg 71%
    12:00 +6°C° 0 mm 1 mps 693 mmHg 68%
    13:00 +6°C° 0 mm 1 mps 693 mmHg 72%
    14:00 +5°C° 0 mm 1 mps 693 mmHg 76%
    15:00 +5°C° 0 mm 1 mps 693 mmHg 80%
    16:00 +3°C° 0 mm 1 mps 693 mmHg 82%
    17:00 +2°C° 0 mm 1 mps 693 mmHg 85%
    18:00 +1°C° 0 mm 1 mps 693 mmHg 88%
    19:00 0°C° 0 mm 1 mps 693 mmHg 86%
    20:00 0°C° 0 mm 1 mps 693 mmHg 85%
    21:00 0°C° 0 mm 1 mps 693 mmHg 84%
    22:00 0°C° 0 mm 1 mps 693 mmHg 81%
    23:00 0°C° 0 mm 1 mps 693 mmHg 78%

    Day after tomorrow, 14 November, Thursday

    Time Temperature Precipitation Wind Pressure Humidity
    00:00 0°C° 0 mm 1 mps 693 mmHg 76%
    01:00 0°C° 0 mm 1 mps 692 mmHg 73%
    02:00 0°C° 0 mm 1 mps 692 mmHg 71%
    03:00 -2°C° 0 mm 2 mps 691 mmHg 68%
    04:00 -2°C° 0 mm 2 mps 691 mmHg 68%
    05:00 -2°C° 0 mm 2 mps 692 mmHg 67%
    06:00 -2°C° 0 mm 2 mps 692 mmHg 67%
    07:00 -1°C° 0 mm 2 mps 692 mmHg 65%
    08:00 +3°C° 0 mm 1 mps 692 mmHg 64%
    09:00 +4°C° 0 mm 1 mps 692 mmHg 63%
    10:00 +5°C° 0 mm 1 mps 692 mmHg 63%
    11:00 +4°C° 0 mm 2 mps 692 mmHg 63%
    12:00 +5°C° 0 mm 2 mps 691 mmHg 63%
    13:00 +5°C° 0 mm 2 mps 691 mmHg 67%
    14:00 +4°C° 0 mm 2 mps 690 mmHg 71%
    15:00 +4°C° 0 mm 2 mps 690 mmHg 75%
    16:00 +3°C° 0 mm 2 mps 689 mmHg 77%
    17:00 +3°C° 0 mm 2 mps 689 mmHg 80%
    18:00 +2°C° 0 mm 2 mps 689 mmHg 82%
    19:00 +2°C° 0.1 mm 2 mps 688 mmHg 85%
    20:00 +2°C° 0.1 mm 2 mps 688 mmHg 87%
    21:00 +2°C° 0.1 mm 2 mps 688 mmHg 89%
    22:00 +3°C° 0.4 mm 1 mps 688 mmHg 91%
    23:00 +3°C° 0.4 mm 1 mps 688 mmHg 92%

    15 November, Friday

    Time Temperature Precipitation Wind Pressure Humidity
    00:00 +3°C° 0.4 mm 1 mps 688 mmHg 94%
    01:00 +3°C° 1.2 mm 1 mps 688 mmHg 95%
    02:00 +3°C° 1.2 mm 1 mps 689 mmHg 96%
    03:00 +3°C° 1.2 mm 1 mps 689 mmHg 97%
    04:00 +3°C° 0.6 mm 1 mps 689 mmHg 97%
    05:00 +3°C° 0.6 mm 1 mps 690 mmHg 97%
    06:00 +2°C° 0.6 mm 1 mps 690 mmHg 96%
    07:00 +3°C° 0.1 mm 1 mps 691 mmHg 94%
    08:00 +4°C° 0.1 mm 1 mps 691 mmHg 93%
    09:00 +4°C° 0.1 mm 1 mps 692 mmHg 91%
    10:00 +5°C° 0.1 mm 1 mps 692 mmHg 90%
    11:00 +5°C° 0.1 mm 1 mps 692 mmHg 89%
    12:00 +6°C° 0.1 mm 1 mps 692 mmHg 88%
    13:00 +6°C° 0 mm 1 mps 691 mmHg 90%
    14:00 +5°C° 0 mm 1 mps 691 mmHg 92%
    15:00 +5°C° 0 mm 1 mps 691 mmHg 93%
    16:00 +4°C° 0 mm 1 mps 691 mmHg 93%
    17:00 +3°C° 0 mm 1 mps 692 mmHg 92%
    18:00 +2°C° 0 mm 1 mps 692 mmHg 91%
    19:00 +1°C° 0 mm 1 mps 692 mmHg 90%
    20:00 +1°C° 0 mm 1 mps 693 mmHg 89%
    21:00 -1°C° 0 mm 2 mps 693 mmHg 88%
    22:00 0°C° 0 mm 1 mps 693 mmHg 87%
    23:00 0°C° 0 mm 1 mps 694 mmHg 86%

    16 November, Saturday

    Time Temperature Precipitation Wind Pressure Humidity
    00:00 0°C° 0 mm 1 mps 694 mmHg 85%
    01:00 0°C° 0 mm 1 mps 694 mmHg 85%
    02:00 0°C° 0 mm 1 mps 694 mmHg 85%
    03:00 0°C° 0 mm 1 mps 695 mmHg 85%
    04:00 0°C° 0 mm 1 mps 695 mmHg 84%
    05:00 0°C° 0 mm 1 mps 695 mmHg 84%
    06:00 -1°C° 0 mm 1 mps 696 mmHg 84%
    07:00 +1°C° 0 mm 1 mps 696 mmHg 83%
    08:00 +2°C° 0 mm 1 mps 697 mmHg 82%
    09:00 +4°C° 0 mm 1 mps 697 mmHg 82%
    10:00 +5°C° 0 mm 1 mps 697 mmHg 81%
    11:00 +5°C° 0 mm 1 mps 696 mmHg 80%
    12:00 +6°C° 0 mm 1 mps 696 mmHg 80%
    13:00 +6°C° 0 mm 1 mps 696 mmHg 84%
    14:00 +5°C° 0 mm 1 mps 696 mmHg 87%
    15:00 +5°C° 0 mm 1 mps 695 mmHg 91%
    16:00 +4°C° 0 mm 1 mps 695 mmHg 91%
    17:00 +3°C° 0 mm 1 mps 695 mmHg 91%
    18:00 +2°C° 0 mm 1 mps 695 mmHg 91%
    19:00 +1°C° 0 mm 1 mps 695 mmHg 90%
    20:00 +1°C° 0 mm 1 mps 694 mmHg 90%
    21:00 +1°C° 0 mm 1 mps 694 mmHg 89%
    22:00 +1°C° 0 mm 1 mps 694 mmHg 89%
    23:00 +1°C° 0 mm 1 mps 693 mmHg 88%

    17 November, Sunday

    Time Temperature Precipitation Wind Pressure Humidity
    00:00 +2°C° 0 mm 1 mps 693 mmHg 88%
    01:00 +2°C° 0 mm 1 mps 693 mmHg 89%
    02:00 +2°C° 0 mm 1 mps 692 mmHg 90%
    03:00 +2°C° 0 mm 1 mps 692 mmHg 91%
    04:00 +2°C° 0.4 mm 1 mps 692 mmHg 93%
    05:00 +2°C° 0.4 mm 1 mps 692 mmHg 94%
    06:00 +1°C° 0.4 mm 0 mps 692 mmHg 96%
    07:00 +3°C° 0.7 mm 1 mps 692 mmHg 96%
    08:00 +3°C° 0.7 mm 1 mps 693 mmHg 96%
    09:00 +4°C° 0.7 mm 1 mps 693 mmHg 96%
    10:00 +4°C° 0.3 mm 1 mps 693 mmHg 96%
    11:00 +5°C° 0.3 mm 1 mps 693 mmHg 95%
    12:00 +4°C° 0.3 mm 2 mps 693 mmHg 95%
    13:00 +4°C° 0.2 mm 2 mps 694 mmHg 95%
    14:00 +4°C° 0.2 mm 2 mps 694 mmHg 96%
    15:00 +3°C° 0.2 mm 2 mps 694 mmHg 97%
    16:00 +4°C° 0.2 mm 1 mps 695 mmHg 97%
    17:00 +4°C° 0.2 mm 1 mps 695 mmHg 97%
    18:00 +3°C° 0.2 mm 1 mps 696 mmHg 97%
    19:00 +2°C° 0.1 mm 1 mps 696 mmHg 95%
    20:00 +2°C° 0.1 mm 1 mps 697 mmHg 94%
    21:00 +1°C° 0.1 mm 1 mps 697 mmHg 93%
    22:00 +1°C° 0 mm 1 mps 697 mmHg 92%
    23:00 +1°C° 0 mm 1 mps 697 mmHg 90%
    Show more